Location: Bijele Vode
(45.2833°N, 16.2000°E)
Time: 12:36:47
(UTC+00:00)

Cosmos 158 Rocket - Pass Details

Date: 18 September 2020
Orbit: 699 x 793 km, 74.0° (Epoch: 29 October)

Event Time Altitude Azimuth Distance (km) Brightness Sun altitude
Rises 17:32:56 0° 336° (NNW) 3,273 7.8 -6.6°
Reaches altitude 10° 17:35:22 10° 333° (NNW) 2,330 7.0 -7.0°
Maximum altitude 17:40:36 66° 253° (WSW) 832 4.5 -8.0°
Drops below altitude 10° 17:45:40 10° 172° (S) 2,254 6.2 -8.8°
Sets 17:47:59 0° 169° (S) 3,157 7.0 -9.2°
